• In Kazakhstan
  • List of Countries
  • For 7 days
  • Water Temperature
  • Satellite Maps
  • Weather Map
  • News
  • Weather Widgets
  • user-avatar
    Login

    Hourly Weather Sidi Bu-l-Abbas

    Today, 12 November, Monday

    Time Temperature Precipitation Wind Pressure Humidity
    00:00 +18°C° 0 mm 3 mps 719 mmHg 41%
    01:00 +18°C° 0 mm 3 mps 719 mmHg 42%
    02:00 +17°C° 0 mm 3 mps 719 mmHg 42%
    03:00 +17°C° 0 mm 3 mps 719 mmHg 43%
    04:00 +17°C° 0 mm 3 mps 719 mmHg 43%
    05:00 +16°C° 0 mm 3 mps 719 mmHg 43%
    06:00 +16°C° 0 mm 3 mps 719 mmHg 42%
    07:00 +18°C° 0 mm 3 mps 719 mmHg 39%
    08:00 +19°C° 0 mm 4 mps 720 mmHg 36%
    09:00 +21°C° 0 mm 4 mps 720 mmHg 33%
    10:00 +22°C° 0 mm 4 mps 720 mmHg 30%
    11:00 +25°C° 0 mm 4 mps 720 mmHg 27%
    12:00 +26°C° 0 mm 5 mps 720 mmHg 23%
    13:00 +26°C° 0 mm 5 mps 720 mmHg 23%
    14:00 +26°C° 0 mm 5 mps 720 mmHg 24%
    15:00 +26°C° 0 mm 5 mps 719 mmHg 24%
    16:00 +25°C° 0 mm 4 mps 720 mmHg 27%
    17:00 +22°C° 0 mm 4 mps 720 mmHg 31%
    18:00 +21°C° 0 mm 3 mps 720 mmHg 35%
    19:00 +20°C° 0 mm 3 mps 720 mmHg 37%
    20:00 +20°C° 0 mm 3 mps 720 mmHg 39%
    21:00 +19°C° 0 mm 3 mps 721 mmHg 42%
    22:00 +18°C° 0 mm 3 mps 721 mmHg 44%
    23:00 +18°C° 0 mm 2 mps 721 mmHg 47%

    Tomorrow, 13 November, Tuesday

    Time Temperature Precipitation Wind Pressure Humidity
    00:00 +17°C° 0 mm 2 mps 721 mmHg 50%
    01:00 +17°C° 0 mm 2 mps 721 mmHg 51%
    02:00 +17°C° 0 mm 2 mps 721 mmHg 51%
    03:00 +16°C° 0 mm 2 mps 721 mmHg 52%
    04:00 +16°C° 0 mm 2 mps 721 mmHg 52%
    05:00 +16°C° 0 mm 2 mps 722 mmHg 52%
    06:00 +16°C° 0 mm 2 mps 722 mmHg 52%
    07:00 +17°C° 0 mm 2 mps 722 mmHg 49%
    08:00 +18°C° 0 mm 2 mps 723 mmHg 47%
    09:00 +19°C° 0 mm 2 mps 723 mmHg 44%
    10:00 +20°C° 0 mm 3 mps 723 mmHg 43%
    11:00 +21°C° 0 mm 3 mps 723 mmHg 41%
    12:00 +22°C° 0 mm 3 mps 723 mmHg 40%
    13:00 +22°C° 0 mm 3 mps 723 mmHg 40%
    14:00 +22°C° 0 mm 3 mps 723 mmHg 41%
    15:00 +24°C° 0 mm 3 mps 723 mmHg 41%
    16:00 +22°C° 0 mm 3 mps 723 mmHg 44%
    17:00 +21°C° 0 mm 3 mps 723 mmHg 48%
    18:00 +20°C° 0 mm 3 mps 723 mmHg 51%
    19:00 +20°C° 0 mm 4 mps 723 mmHg 53%
    20:00 +20°C° 0 mm 4 mps 723 mmHg 56%
    21:00 +19°C° 0 mm 4 mps 723 mmHg 58%
    22:00 +19°C° 0 mm 4 mps 723 mmHg 59%
    23:00 +18°C° 0 mm 4 mps 723 mmHg 60%

    Day after tomorrow, 14 November, Wednesday

    Time Temperature Precipitation Wind Pressure Humidity
    00:00 +18°C° 0 mm 3 mps 723 mmHg 60%
    01:00 +18°C° 0 mm 4 mps 723 mmHg 61%
    02:00 +17°C° 0 mm 4 mps 723 mmHg 62%
    03:00 +17°C° 0 mm 4 mps 722 mmHg 63%
    04:00 +17°C° 0 mm 4 mps 722 mmHg 64%
    05:00 +15°C° 0 mm 4 mps 722 mmHg 64%
    06:00 +16°C° 0 mm 3 mps 722 mmHg 64%
    07:00 +16°C° 0 mm 5 mps 722 mmHg 59%
    08:00 +17°C° 0 mm 6 mps 722 mmHg 54%
    09:00 +18°C° 0 mm 7 mps 722 mmHg 49%
    10:00 +21°C° 0 mm 7 mps 722 mmHg 44%
    11:00 +22°C° 0 mm 7 mps 721 mmHg 39%
    12:00 +23°C° 0 mm 7 mps 721 mmHg 33%
    13:00 +24°C° 0 mm 7 mps 720 mmHg 32%
    14:00 +24°C° 0 mm 6 mps 720 mmHg 31%
    15:00 +24°C° 0 mm 6 mps 719 mmHg 30%
    16:00 +23°C° 0.1 mm 5 mps 719 mmHg 36%
    17:00 +22°C° 0.1 mm 4 mps 719 mmHg 41%
    18:00 +20°C° 0.1 mm 3 mps 719 mmHg 46%
    19:00 +20°C° 0.4 mm 4 mps 719 mmHg 50%
    20:00 +19°C° 0.4 mm 4 mps 719 mmHg 54%
    21:00 +17°C° 0.4 mm 5 mps 719 mmHg 57%
    22:00 +17°C° 0.1 mm 6 mps 719 mmHg 58%
    23:00 +17°C° 0.1 mm 6 mps 719 mmHg 58%

    15 November, Thursday

    Time Temperature Precipitation Wind Pressure Humidity
    00:00 +17°C° 0.1 mm 7 mps 719 mmHg 58%
    01:00 +17°C° 0 mm 6 mps 718 mmHg 59%
    02:00 +17°C° 0 mm 5 mps 718 mmHg 61%
    03:00 +16°C° 0 mm 5 mps 718 mmHg 62%
    04:00 +17°C° 0 mm 4 mps 718 mmHg 65%
    05:00 +16°C° 0 mm 3 mps 717 mmHg 68%
    06:00 +16°C° 0 mm 3 mps 717 mmHg 70%
    07:00 +17°C° 0 mm 2 mps 718 mmHg 66%
    08:00 +18°C° 0 mm 2 mps 718 mmHg 61%
    09:00 +19°C° 0 mm 2 mps 718 mmHg 57%
    10:00 +19°C° 0 mm 2 mps 718 mmHg 54%
    11:00 +20°C° 0 mm 2 mps 718 mmHg 51%
    12:00 +21°C° 0 mm 3 mps 718 mmHg 48%
    13:00 +21°C° 0 mm 3 mps 718 mmHg 49%
    14:00 +20°C° 0 mm 3 mps 718 mmHg 51%
    15:00 +20°C° 0 mm 3 mps 718 mmHg 52%
    16:00 +19°C° 0 mm 3 mps 718 mmHg 58%
    17:00 +18°C° 0 mm 2 mps 718 mmHg 64%
    18:00 +17°C° 0 mm 2 mps 718 mmHg 69%
    19:00 +18°C° 0 mm 1 mps 718 mmHg 72%
    20:00 +18°C° 0 mm 1 mps 719 mmHg 75%
    21:00 +15°C° 0 mm 0 mps 719 mmHg 78%
    22:00 +15°C° 0 mm 0 mps 719 mmHg 79%
    23:00 +14°C° 0 mm 0 mps 719 mmHg 80%

    16 November, Friday

    Time Temperature Precipitation Wind Pressure Humidity
    00:00 +14°C° 0 mm 0 mps 719 mmHg 81%
    01:00 +14°C° 0 mm 0 mps 718 mmHg 81%
    02:00 +13°C° 0 mm 0 mps 718 mmHg 81%
    03:00 +13°C° 0 mm 0 mps 718 mmHg 82%
    04:00 +13°C° 0 mm 0 mps 718 mmHg 81%
    05:00 +14°C° 0 mm 1 mps 718 mmHg 80%
    06:00 +14°C° 0 mm 1 mps 718 mmHg 80%
    07:00 +15°C° 0 mm 1 mps 718 mmHg 72%
    08:00 +18°C° 0 mm 1 mps 719 mmHg 65%
    09:00 +19°C° 0 mm 1 mps 719 mmHg 57%
    10:00 +19°C° 0 mm 2 mps 719 mmHg 52%
    11:00 +20°C° 0 mm 2 mps 718 mmHg 46%
    12:00 +23°C° 0 mm 2 mps 718 mmHg 40%
    13:00 +23°C° 0 mm 2 mps 718 mmHg 38%
    14:00 +23°C° 0 mm 2 mps 717 mmHg 37%
    15:00 +23°C° 0 mm 2 mps 717 mmHg 35%
    16:00 +21°C° 0 mm 2 mps 717 mmHg 40%
    17:00 +20°C° 0 mm 3 mps 717 mmHg 44%
    18:00 +19°C° 0 mm 3 mps 717 mmHg 48%
    19:00 +19°C° 0 mm 2 mps 717 mmHg 50%
    20:00 +19°C° 0 mm 2 mps 717 mmHg 53%
    21:00 +18°C° 0 mm 2 mps 717 mmHg 55%
    22:00 +19°C° 0 mm 1 mps 717 mmHg 56%
    23:00 +18°C° 0 mm 1 mps 717 mmHg 57%

    17 November, Saturday

    Time Temperature Precipitation Wind Pressure Humidity
    00:00 +18°C° 0 mm 1 mps 717 mmHg 58%
    01:00 +18°C° 0 mm 1 mps 717 mmHg 60%
    02:00 +16°C° 0 mm 1 mps 716 mmHg 63%
    03:00 +16°C° 0 mm 1 mps 716 mmHg 65%
    04:00 +15°C° 0 mm 1 mps 716 mmHg 68%
    05:00 +15°C° 0 mm 1 mps 716 mmHg 71%
    06:00 +14°C° 0 mm 1 mps 716 mmHg 73%
    07:00 +16°C° 0 mm 1 mps 717 mmHg 69%
    08:00 +18°C° 0 mm 1 mps 717 mmHg 65%
    09:00 +18°C° 0 mm 2 mps 718 mmHg 60%
    10:00 +19°C° 0 mm 2 mps 718 mmHg 58%
    11:00 +19°C° 0 mm 2 mps 718 mmHg 55%
    12:00 +20°C° 0 mm 2 mps 718 mmHg 52%
    13:00 +20°C° 0 mm 3 mps 717 mmHg 53%
    14:00 +20°C° 0 mm 3 mps 717 mmHg 54%
    15:00 +20°C° 0 mm 3 mps 717 mmHg 55%
    16:00 +19°C° 0 mm 3 mps 717 mmHg 61%
    17:00 +18°C° 0 mm 2 mps 717 mmHg 66%
    18:00 +18°C° 0 mm 1 mps 717 mmHg 71%
    19:00 +18°C° 0 mm 1 mps 717 mmHg 74%
    20:00 +16°C° 0 mm 1 mps 717 mmHg 76%
    21:00 +16°C° 0 mm 1 mps 718 mmHg 78%
    22:00 +16°C° 0 mm 1 mps 717 mmHg 78%
    23:00 +15°C° 0 mm 1 mps 717 mmHg 78%
    Show more